When you browse on this site, cookies collect data to enhance your experience and personalize the content and advertising you see.
Visit our Privacy Policy to learn more. By continuing to use the site, you agree to this use of cookies and data.
  • In Austria
  • List of Countries
  • For 7 days
  • Water Temperature
  • Satellite Maps
  • Weather Map
  • News
  • Weather Widgets
  • user-avatar
    Login

    Hourly Weather Baden-Baden

    Today, 17 January, Thursday

    Time Temperature Precipitation Wind Pressure Humidity
    00:00 +1°C° 0 mm 4 mps 724 mmHg 80%
    01:00 +1°C° 0 mm 5 mps 724 mmHg 82%
    02:00 +1°C° 0 mm 5 mps 724 mmHg 82%
    03:00 +2°C° 0 mm 6 mps 723 mmHg 82%
    04:00 +2°C° 0 mm 6 mps 723 mmHg 81%
    05:00 +2°C° 0.1 mm 6 mps 723 mmHg 82%
    06:00 +3°C° 0.1 mm 6 mps 723 mmHg 82%
    07:00 +3°C° 0.1 mm 5 mps 722 mmHg 82%
    08:00 +3°C° 1 mm 5 mps 722 mmHg 84%
    09:00 +3°C° 1 mm 5 mps 722 mmHg 85%
    10:00 +3°C° 1 mm 5 mps 722 mmHg 87%
    11:00 +3°C° 0.2 mm 6 mps 722 mmHg 85%
    12:00 +3°C° 0.2 mm 6 mps 722 mmHg 83%
    13:00 +4°C° 0.2 mm 6 mps 722 mmHg 80%
    14:00 +3°C° 0.2 mm 6 mps 723 mmHg 79%
    15:00 +3°C° 0.2 mm 6 mps 723 mmHg 77%
    16:00 +3°C° 0.2 mm 7 mps 723 mmHg 76%
    17:00 +2°C° 0.3 mm 6 mps 724 mmHg 78%
    18:00 +1°C° 0.3 mm 6 mps 724 mmHg 80%
    19:00 +1°C° 0.3 mm 6 mps 725 mmHg 83%
    20:00 +1°C° 0.5 mm 5 mps 725 mmHg 84%
    21:00 0°C° 0.5 mm 5 mps 726 mmHg 86%
    22:00 0°C° 0.5 mm 4 mps 727 mmHg 87%
    23:00 -1°C° 0.1 mm 4 mps 727 mmHg 87%

    Tomorrow, 18 January, Friday

    Time Temperature Precipitation Wind Pressure Humidity
    00:00 -1°C° 0.1 mm 3 mps 728 mmHg 88%
    01:00 -1°C° 0.1 mm 3 mps 728 mmHg 88%
    02:00 -2°C° 0 mm 2 mps 728 mmHg 89%
    03:00 -2°C° 0 mm 2 mps 729 mmHg 90%
    04:00 -3°C° 0 mm 2 mps 729 mmHg 91%
    05:00 -3°C° 0 mm 2 mps 730 mmHg 91%
    06:00 -3°C° 0 mm 2 mps 730 mmHg 92%
    07:00 -1°C° 0 mm 1 mps 731 mmHg 92%
    08:00 -1°C° 0 mm 1 mps 731 mmHg 90%
    09:00 0°C° 0 mm 1 mps 731 mmHg 88%
    10:00 0°C° 0 mm 1 mps 732 mmHg 86%
    11:00 +1°C° 0 mm 1 mps 732 mmHg 81%
    12:00 +1°C° 0 mm 0 mps 732 mmHg 76%
    13:00 +2°C° 0 mm 0 mps 732 mmHg 71%
    14:00 +1°C° 0 mm 0 mps 732 mmHg 72%
    15:00 +2°C° 0 mm 1 mps 731 mmHg 72%
    16:00 +2°C° 0 mm 1 mps 731 mmHg 73%
    17:00 +1°C° 0 mm 1 mps 731 mmHg 76%
    18:00 0°C° 0 mm 1 mps 731 mmHg 80%
    19:00 -1°C° 0 mm 1 mps 731 mmHg 83%
    20:00 -1°C° 0 mm 1 mps 731 mmHg 84%
    21:00 -1°C° 0 mm 1 mps 731 mmHg 84%
    22:00 -1°C° 0 mm 1 mps 731 mmHg 84%
    23:00 -2°C° 0 mm 1 mps 731 mmHg 84%

    Day after tomorrow, 19 January, Saturday

    Time Temperature Precipitation Wind Pressure Humidity
    00:00 -2°C° 0 mm 1 mps 731 mmHg 84%
    01:00 -2°C° 0 mm 1 mps 730 mmHg 84%
    02:00 -2°C° 0 mm 1 mps 730 mmHg 84%
    03:00 -2°C° 0 mm 1 mps 730 mmHg 84%
    04:00 -3°C° 0 mm 1 mps 730 mmHg 84%
    05:00 -3°C° 0 mm 1 mps 730 mmHg 84%
    06:00 -3°C° 0 mm 1 mps 729 mmHg 84%
    07:00 -3°C° 0 mm 1 mps 729 mmHg 84%
    08:00 -2°C° 0 mm 1 mps 729 mmHg 82%
    09:00 -2°C° 0 mm 1 mps 729 mmHg 79%
    10:00 -1°C° 0 mm 1 mps 729 mmHg 77%
    11:00 0°C° 0 mm 1 mps 729 mmHg 72%
    12:00 +1°C° 0 mm 1 mps 728 mmHg 67%
    13:00 +2°C° 0 mm 1 mps 728 mmHg 62%
    14:00 +2°C° 0 mm 1 mps 728 mmHg 65%
    15:00 +2°C° 0 mm 1 mps 727 mmHg 67%
    16:00 +2°C° 0 mm 1 mps 727 mmHg 69%
    17:00 0°C° 0 mm 1 mps 727 mmHg 73%
    18:00 -1°C° 0 mm 1 mps 727 mmHg 77%
    19:00 -2°C° 0 mm 1 mps 727 mmHg 82%
    20:00 -2°C° 0 mm 1 mps 727 mmHg 82%
    21:00 -2°C° 0 mm 1 mps 727 mmHg 83%
    22:00 -2°C° 0 mm 1 mps 727 mmHg 83%
    23:00 -2°C° 0 mm 1 mps 727 mmHg 83%

    20 January, Sunday

    Time Temperature Precipitation Wind Pressure Humidity
    00:00 -2°C° 0 mm 1 mps 727 mmHg 82%
    01:00 -2°C° 0 mm 1 mps 727 mmHg 81%
    02:00 -2°C° 0 mm 1 mps 727 mmHg 80%
    03:00 -2°C° 0 mm 1 mps 727 mmHg 79%
    04:00 -2°C° 0 mm 1 mps 727 mmHg 77%
    05:00 -2°C° 0 mm 1 mps 727 mmHg 77%
    06:00 -2°C° 0 mm 1 mps 727 mmHg 77%
    07:00 -3°C° 0 mm 0 mps 727 mmHg 77%
    08:00 -2°C° 0 mm 0 mps 728 mmHg 75%
    09:00 -1°C° 0 mm 0 mps 728 mmHg 74%
    10:00 -1°C° 0 mm 0 mps 728 mmHg 72%
    11:00 0°C° 0 mm 0 mps 729 mmHg 71%
    12:00 +2°C° 0 mm 1 mps 729 mmHg 70%
    13:00 +3°C° 0 mm 1 mps 729 mmHg 69%
    14:00 +2°C° 0 mm 1 mps 729 mmHg 71%
    15:00 +2°C° 0 mm 1 mps 729 mmHg 73%
    16:00 +2°C° 0 mm 1 mps 729 mmHg 76%
    17:00 +1°C° 0 mm 1 mps 730 mmHg 78%
    18:00 -1°C° 0 mm 0 mps 730 mmHg 80%
    19:00 -1°C° 0 mm 0 mps 731 mmHg 82%
    20:00 -1°C° 0 mm 0 mps 731 mmHg 82%
    21:00 -2°C° 0 mm 0 mps 731 mmHg 83%
    22:00 -2°C° 0 mm 0 mps 732 mmHg 84%
    23:00 -2°C° 0 mm 0 mps 732 mmHg 84%

    21 January, Monday

    Time Temperature Precipitation Wind Pressure Humidity
    00:00 -2°C° 0 mm 0 mps 732 mmHg 85%
    01:00 -2°C° 0 mm 0 mps 732 mmHg 86%
    02:00 -2°C° 0 mm 0 mps 732 mmHg 88%
    03:00 -1°C° 0 mm 1 mps 732 mmHg 90%
    04:00 -1°C° 0 mm 1 mps 732 mmHg 92%
    05:00 -1°C° 0 mm 1 mps 732 mmHg 93%
    06:00 -1°C° 0 mm 1 mps 732 mmHg 94%
    07:00 -1°C° 0 mm 1 mps 732 mmHg 95%
    08:00 -3°C° 0 mm 2 mps 732 mmHg 91%
    09:00 -2°C° 0 mm 2 mps 732 mmHg 88%
    10:00 -2°C° 0 mm 2 mps 732 mmHg 85%
    11:00 -1°C° 0.3 mm 3 mps 732 mmHg 86%
    12:00 -1°C° 0.3 mm 3 mps 731 mmHg 86%
    13:00 -1°C° 0.3 mm 3 mps 731 mmHg 86%
    14:00 -1°C° 0.8 mm 3 mps 731 mmHg 88%
    15:00 -1°C° 0.8 mm 3 mps 731 mmHg 89%
    16:00 0°C° 0.8 mm 3 mps 731 mmHg 91%
    17:00 -1°C° 1 mm 3 mps 731 mmHg 92%
    18:00 -1°C° 1 mm 3 mps 731 mmHg 92%
    19:00 -1°C° 1 mm 3 mps 731 mmHg 93%
    20:00 -1°C° 0.9 mm 3 mps 731 mmHg 93%
    21:00 -1°C° 0.9 mm 2 mps 731 mmHg 94%
    22:00 -2°C° 0.9 mm 2 mps 732 mmHg 94%
    23:00 -2°C° 0.2 mm 2 mps 731 mmHg 94%

    22 January, Tuesday

    Time Temperature Precipitation Wind Pressure Humidity
    00:00 -3°C° 0.2 mm 2 mps 731 mmHg 95%
    01:00 -3°C° 0.2 mm 2 mps 730 mmHg 96%
    02:00 -4°C° 0 mm 2 mps 729 mmHg 96%
    03:00 -4°C° 0 mm 2 mps 729 mmHg 95%
    04:00 -3°C° 0 mm 1 mps 728 mmHg 95%
    05:00 -5°C° 0 mm 2 mps 727 mmHg 94%
    06:00 -5°C° 0 mm 2 mps 726 mmHg 93%
    07:00 -6°C° 0 mm 2 mps 726 mmHg 92%
    08:00 -5°C° 0 mm 2 mps 725 mmHg 89%
    09:00 -4°C° 0 mm 2 mps 724 mmHg 87%
    10:00 -4°C° 0 mm 2 mps 723 mmHg 84%
    11:00 -2°C° 0 mm 2 mps 722 mmHg 81%
    12:00 -1°C° 0 mm 2 mps 721 mmHg 79%
    13:00 +1°C° 0 mm 2 mps 720 mmHg 76%
    14:00 +1°C° 0 mm 2 mps 720 mmHg 77%
    15:00 +1°C° 0 mm 2 mps 719 mmHg 79%
    16:00 -1°C° 0 mm 2 mps 718 mmHg 80%
    17:00 -1°C° 0 mm 2 mps 718 mmHg 81%
    18:00 -1°C° 0 mm 2 mps 718 mmHg 82%
    19:00 -2°C° 0 mm 2 mps 717 mmHg 83%
    20:00 -2°C° 0.1 mm 2 mps 717 mmHg 84%
    21:00 -2°C° 0.1 mm 2 mps 717 mmHg 84%
    22:00 -2°C° 0.1 mm 2 mps 717 mmHg 85%
    23:00 0°C° 0.1 mm 1 mps 717 mmHg 88%
    Show more